TimePDT,TemperatureF,Dew PointF,Humidity,Sea Level PressureIn,VisibilityMPH,Wind Direction,Wind SpeedMPH,Gust SpeedMPH,PrecipitationIn,Events,Conditions,WindDirDegrees,DateUTC
12:53 AM,82.9,46.0,27,29.67,10.0,East,9.2,-,N/A,,Clear,80,2013-09-10 07:53:00
1:53 AM,81.0,46.9,30,29.68,10.0,East,6.9,-,N/A,,Clear,100,2013-09-10 08:53:00
2:53 AM,73.0,48.9,42,29.69,10.0,South,4.6,-,N/A,,Clear,180,2013-09-10 09:53:00
3:53 AM,70.0,52.0,53,29.70,10.0,Calm,Calm,-,N/A,,Clear,0,2013-09-10 10:53:00
4:53 AM,69.1,51.1,53,29.71,10.0,NE,3.5,-,N/A,,Clear,50,2013-09-10 11:53:00
5:53 AM,66.9,51.1,57,29.72,10.0,Calm,Calm,-,N/A,,Clear,0,2013-09-10 12:53:00
6:53 AM,66.0,50.0,56,29.73,10.0,East,3.5,-,N/A,,Clear,80,2013-09-10 13:53:00
7:53 AM,72.0,50.0,46,29.75,10.0,East,3.5,-,N/A,,Clear,80,2013-09-10 14:53:00
8:53 AM,75.0,52.0,44,29.76,10.0,South,6.9,-,N/A,,Clear,180,2013-09-10 15:53:00
9:53 AM,79.0,53.1,40,29.77,10.0,Variable,4.6,-,N/A,,Clear,0,2013-09-10 16:53:00
10:53 AM,82.0,53.1,37,29.76,10.0,South,5.8,-,N/A,,Clear,190,2013-09-10 17:53:00
11:53 AM,-9999,-9999,N/A,29.76,10.0,South,6.9,-,N/A,,Clear,170,2013-09-10 18:53:00
12:53 PM,88.0,52.0,29,29.75,10.0,Variable,3.5,-,N/A,,Clear,0,2013-09-10 19:53:00
1:53 PM,91.0,53.1,27,29.73,10.0,Variable,3.5,-,N/A,,Clear,0,2013-09-10 20:53:00
2:53 PM,93.0,53.1,26,29.72,10.0,Variable,5.8,-,N/A,,Clear,0,2013-09-10 21:53:00
3:53 PM,93.9,54.0,26,29.70,10.0,South,8.1,-,N/A,,Clear,180,2013-09-10 22:53:00
4:53 PM,93.9,52.0,24,29.69,10.0,South,10.4,-,N/A,,Clear,180,2013-09-10 23:53:00
5:53 PM,91.0,55.0,29,29.70,10.0,South,16.1,-,N/A,,Clear,170,2013-09-11 00:53:00
6:53 PM,87.1,57.9,37,29.72,10.0,South,9.2,-,N/A,,Clear,170,2013-09-11 01:53:00
7:53 PM,82.0,57.9,44,29.75,10.0,SSE,13.8,-,N/A,,Clear,160,2013-09-11 02:53:00
8:53 PM,75.9,60.1,58,29.78,10.0,SSE,17.3,-,N/A,,Clear,160,2013-09-11 03:53:00
9:53 PM,73.0,59.0,61,29.80,10.0,SSE,13.8,-,N/A,,Clear,150,2013-09-11 04:53:00
10:53 PM,71.1,59.0,66,29.81,10.0,SSE,12.7,-,N/A,,Clear,160,2013-09-11 05:53:00
11:53 PM,69.1,57.0,65,29.83,10.0,SSE,11.5,-,N/A,,Clear,160,2013-09-11 06:53:00